DW7418 Lemmer NL current weather conditions

sailwx.info

Wind from 231 at 4 knots gusting 12

Air temperature 4.4° C
Dewpoint -37.1° C

Last reported at 2019-Dec-13 21:39 UTC.
Time now 2019-Dec-13 23:14 UTC

Location: N 52°51' E 005°43'.
View on Google Maps.

See reports from other nearby stations

  
Tides and Currents Weather Stations Pressure Air Temp Water Temp Dewpoint Dewpoint Depression Visibility Wind Speed Wind Dir Waves Ship Positions
date/time (UTC)wind fromknots sea level pressurealtimeterstation pressurevisibilityair tempwater tempwave heightnotes
2019-Dec-13 21:39 231 4 gusting 12 4.4
2019-Dec-13 21:09 238 3 gusting 7 4.4
2019-Dec-13 20:39 244 2 gusting 8 4.4
2019-Dec-13 20:09 242 4 gusting 10 4.4
2019-Dec-13 19:39 244 3 gusting 6 3.3
2019-Dec-13 19:09 174 1 gusting 5 2.8
2019-Dec-13 18:39 174 1 gusting 5 2.8
2019-Dec-13 18:09 173 2 gusting 5 2.8
2019-Dec-13 17:39 173 1 gusting 6 3.3
2019-Dec-13 17:09 171 4 gusting 6 3.3
2019-Dec-13 16:39 161 1 gusting 2 3.3
2019-Dec-13 16:09 121 1 gusting 4 3.3
2019-Dec-13 15:39 118 1 gusting 5 3.3
2019-Dec-13 15:09 116 0 gusting 2 3.3
2019-Dec-13 14:39 115 1 gusting 2 3.3
2019-Dec-13 14:09 115 3.3
2019-Dec-13 13:39 115 3.3
2019-Dec-13 13:09 115 2.8
2019-Dec-13 12:39 115 1 gusting 2 2.8
2019-Dec-13 12:09 115 0 gusting 2 2.8
2019-Dec-13 11:39 115 1 gusting 5 2.8
2019-Dec-13 11:09 120 1 gusting 6 2.8
2019-Dec-13 10:39 119 1 gusting 6 2.8
2019-Dec-13 10:09 108 2 gusting 6 2.8
2019-Dec-13 09:39 112 2 gusting 6 2.8
2019-Dec-13 09:09 119 2 gusting 7 2.8
2019-Dec-13 08:39 129 4 gusting 7 2.8
2019-Dec-13 08:09 125 5 gusting 10 2.8
2019-Dec-13 07:39 116 5 gusting 10 2.8
2019-Dec-13 07:09 138 6 gusting 10 2.8
2019-Dec-13 06:39 136 5 gusting 13 2.8
2019-Dec-13 06:09 133 7 gusting 13 2.8
2019-Dec-13 05:39 139 6 gusting 17 2.8
2019-Dec-13 05:09 146 7 gusting 13 2.8
2019-Dec-13 04:39 128 6 gusting 15 2.8
2019-Dec-13 04:09 132 7 gusting 15 2.8
2019-Dec-13 03:39 134 7 gusting 17 3.3
2019-Dec-13 03:09 154 6 gusting 17 3.3
2019-Dec-13 02:39 161 7 gusting 15 3.9
2019-Dec-13 02:09 142 8 gusting 17 4.4
2019-Dec-13 01:39 135 8 gusting 17 4.4
2019-Dec-13 01:09 160 10 gusting 18 4.4
2019-Dec-13 00:39 141 8 gusting 19 4.4
2019-Dec-13 00:09 127 11 gusting 18 4.4
2019-Dec-12 23:39 117 10 gusting 19 5.0
2019-Dec-12 23:08 146 11 gusting 18 4.4
2019-Dec-12 22:39 144 7 gusting 17 5.0
2019-Dec-12 22:09 168 8 gusting 17 4.4
2019-Dec-12 21:39 130 9 gusting 17 4.4
2019-Dec-12 21:09 141 7 gusting 15 4.4
2019-Dec-12 20:39 165 7 gusting 15 4.4
2019-Dec-12 20:09 137 6 gusting 13 4.4
2019-Dec-12 19:39 124 6 gusting 13 4.4
2019-Dec-12 19:09 171 6 gusting 13 3.9
2019-Dec-12 18:39 142 7 gusting 15 3.9
2019-Dec-12 18:09 151 7 gusting 13 4.4
2019-Dec-12 17:39 151 6 gusting 13 3.9
2019-Dec-12 17:09 160 7 gusting 17 3.9
2019-Dec-12 16:39 152 6 gusting 12 3.9
2019-Dec-12 16:09 148 5 gusting 10 3.9
2019-Dec-12 15:39 166 4 gusting 10 4.4
2019-Dec-12 15:09 161 4 gusting 10 5.0
2019-Dec-12 14:39 180 5 gusting 10 5.0
2019-Dec-12 14:09 191 4 gusting 13 5.6
2019-Dec-12 13:39 190 7 gusting 13 5.6
2019-Dec-12 13:09 174 7 gusting 13 5.6
2019-Dec-12 12:39 195 6 gusting 11 5.6
2019-Dec-12 12:09 183 6 gusting 13 6.1
2019-Dec-12 11:39 186 6 gusting 10 6.1
2019-Dec-12 11:09 189 7 gusting 13 3.9
2019-Dec-12 10:39 183 4 gusting 10 3.3
2019-Dec-12 10:09 191 2 gusting 6 2.8
2019-Dec-12 09:39 195 4 gusting 8 2.2
2019-Dec-12 09:09 188 2 gusting 6 2.2
2019-Dec-12 08:39 188 3 gusting 7 1.7
2019-Dec-12 08:09 199 2 gusting 5 1.7
2019-Dec-12 07:39 199 1 gusting 6 1.7
2019-Dec-12 07:09 203 2 gusting 5 2.2
2019-Dec-12 06:39 210 1 gusting 2 2.8
2019-Dec-12 06:09 215 0 gusting 4 2.8
2019-Dec-12 05:39 214 1 gusting 2 3.3
2019-Dec-12 05:09 200 1 gusting 4 3.3
2019-Dec-12 04:39 200 2 gusting 4 3.3
2019-Dec-12 04:09 194 1 gusting 10 3.3
2019-Dec-12 03:39 215 2 gusting 5 3.9
2019-Dec-12 03:09 192 2 gusting 8 3.9
2019-Dec-12 02:39 191 5 gusting 7 3.9
2019-Dec-12 02:09 188 6 gusting 8 3.9
2019-Dec-12 01:39 183 4 gusting 7 3.9
2019-Dec-12 01:09 193 1 gusting 5 3.9
2019-Dec-12 00:39 183 1 gusting 6 3.3
2019-Dec-12 00:09 191 3 gusting 7 3.9
2019-Dec-11 23:39 192 3 gusting 10 3.9
2019-Dec-11 23:08 190 5 gusting 8 3.3